Weather History for Kendall, FL

Change the Weather History Date:

Friday, March 8, 2013

  Actual Average Record
Temperature  
Mean Temperature 62 °F -  
Max Temperature 77 °F 79 °F 87 °F (1992)
Min Temperature 46 °F 57 °F 41 °F (2001)
Degree Days  
Heating Degree Days 4    
Growing Degree Days 12 (Base 50)    
Moisture  
Dew Point 49 °F    
Average Humidity 67    
Maximum Humidity 97    
Minimum Humidity 34    
Precipitation  
Precipitation 0.00 in - - ()
Sea Level Pressure  
Sea Level Pressure 30.16 in    
Wind  
Wind Speed 5 mph (NNW)    
Max Wind Speed 13 mph    
Max Gust Speed 16 mph    
Visibility 10 miles    
Events      
Averages and records for this station are not official NWS values.
T = Trace of Precipitation, MM = Missing Value Source: NWS Daily Summary

Daily Weather History Graph

Daily Weather History Graph

Search for Another Location

Airport:

Trip Planner

Search our weather history database for the weather conditions in past years. The results will help you decide how hot, cold, wet, or windy it might be!

Date:

Astronomy

Mar. 08, 2013 Rise Set
Actual Time 6:37 AM EST 6:27 PM EST
Civil Twilight 6:14 AM EST 6:50 PM EST
Nautical Twilight 5:48 AM EST 7:16 PM EST
Astronomical Twilight 5:21 AM EST 7:43 PM EST
Moon 4:04 AM EST (3/8) 3:34 PM EST (3/8)
Length of Visible Light 12h 35m
Length of Day
11h 49m
Waning Crescent, 12% of the Moon is Illuminated
Mar 8
Waning Crescent
Mar 11
New
Mar 19
First Quarter
Mar 27
Full
Apr 3
Last Quarter

Hourly Weather History & Observations

Time (EST) Temp. Dew Point Humidity Pressure Visibility Wind Dir Wind Speed Gust Speed Precip Events Conditions
12:53 AM 48.0 °F 46.9 °F 96% 30.18 in 10.0 mi West 5.8 mph - N/A   Clear
1:53 AM 48.0 °F 46.9 °F 96% 30.17 in 9.0 mi NW 3.5 mph - N/A   Clear
2:53 AM 46.9 °F 46.0 °F 97% 30.15 in 8.0 mi NW 4.6 mph - N/A   Clear
3:53 AM 48.9 °F 46.9 °F 93% 30.15 in 10.0 mi NNW 4.6 mph - N/A   Clear
4:53 AM 51.1 °F 48.9 °F 92% 30.15 in 10.0 mi NNW 3.5 mph - N/A   Clear
5:53 AM 51.1 °F 48.9 °F 92% 30.16 in 10.0 mi North 4.6 mph - N/A   Clear
6:53 AM 52.0 °F 48.9 °F 89% 30.17 in 10.0 mi North 5.8 mph - N/A   Clear
7:53 AM 57.9 °F 50.0 °F 75% 30.19 in 10.0 mi North 4.6 mph - N/A   Clear
8:53 AM 64.0 °F 50.0 °F 60% 30.20 in 10.0 mi North 10.4 mph - N/A   Clear
9:53 AM 70.0 °F 48.0 °F 46% 30.21 in 10.0 mi NNE 8.1 mph - N/A   Clear
10:53 AM 71.1 °F 48.0 °F 44% 30.21 in 10.0 mi North 8.1 mph - N/A   Clear
11:53 AM 73.9 °F 48.0 °F 40% 30.18 in 10.0 mi North 6.9 mph - N/A   Clear
12:53 PM 75.9 °F 48.0 °F 37% 30.16 in 10.0 mi North 8.1 mph 16.1 mph N/A   Clear
1:53 PM 77.0 °F 48.9 °F 37% 30.13 in 10.0 mi Variable 4.6 mph - N/A   Clear
2:53 PM 77.0 °F 46.9 °F 34% 30.12 in 10.0 mi NE 5.8 mph - N/A   Clear
3:53 PM 77.0 °F 48.0 °F 36% 30.12 in 10.0 mi WNW 12.7 mph - N/A   Clear
4:53 PM 75.9 °F 46.0 °F 35% 30.12 in 10.0 mi Variable 3.5 mph - N/A   Clear
5:53 PM 71.1 °F 52.0 °F 51% 30.14 in 10.0 mi SE 8.1 mph - N/A   Clear
6:53 PM 64.9 °F 52.0 °F 63% 30.15 in 10.0 mi ESE 3.5 mph - N/A   Clear
7:53 PM 63.0 °F 52.0 °F 67% 30.16 in 10.0 mi Calm Calm - N/A   Clear
8:53 PM 61.0 °F 51.1 °F 70% 30.17 in 10.0 mi Calm Calm - N/A   Clear
9:53 PM 57.0 °F 52.0 °F 83% 30.18 in 10.0 mi West 4.6 mph - N/A   Clear
10:53 PM 55.0 °F 52.0 °F 89% 30.18 in 10.0 mi Calm Calm - N/A   Clear
11:53 PM 55.0 °F 52.0 °F 89% 30.17 in 10.0 mi Calm Calm - N/A   Clear